Location: Ridgway Nature & Science Center
(38.1460°N, 107.7553°W)
Time: 13:37:09
(UTC-07:00)

Hubble Space Telescope - Pass Details

Date: 29 October 2021
Orbit: 534 x 538 km, 28.5° (Epoch: 06 December)

Event Time Altitude Azimuth Distance (km) Brightness Sun altitude
Rises 20:27:48 0° 236° (SW) 2,655 5.1 -26.7°
Reaches altitude 10° 20:30:32 10° 218° (SW) 1,766 3.8 -27.2°
Enters shadow 20:31:39 15° 205° (SSW) 1,495 3.2 -27.5°
